Regional Weather Roundup
Issued by NWS

Home | Current Version | Previous Version | Text Only | Print | Product List | Glossary On
Versions: 1 2 3 4 5 6 7 8 9 10 11 12 13 14 15 16 17 18 19 20 21 22 23 24 25 26 27 28 29 30 31 32 33 34 35 36 37 38 39 40 41 42 43 44 45 46 47 48 49 50
000
ASUS46 KSTO 021709
RWRCA

NORTHERN AND CENTRAL CA REGIONAL WEATHER ROUNDUP
NATIONAL WEATHER SERVICE SACRAMENTO CA
1000 AM PDT TUE SEP 02 2014

NOTE: FAIR INDICATES FEW OR NO CLOUDS BELOW 12,000 FEET WITH NO
SIGNIFICANT WEATHER AND/OR OBSTRUCTIONS TO VISIBILITY.

CAZ001-003-021800-
NORTHWEST AREA

CITY           SKY/WX    TMP DP  RH WIND       PRES   REMARKS
CRESCENT CITY  MOSUNNY   58  55  90 NW5       29.86R FOG
ARCATA         NOT AVBL
SHELTER COVE   NOT AVBL
UKIAH          SUNNY     72  49  44 CALM      29.81F
$$

CAZ006-505>513-021800-
BAY AREA

CITY           SKY/WX    TMP DP  RH WIND       PRES   REMARKS
SANTA ROSA     MOSUNNY   60  55  83 CALM      29.83R HAZE
SAN RAFAEL     N/A       62  MM  MM MISG
NAPA           CLOUDY    62  57  83 SW8       29.84S
CONCORD        SUNNY     70  56  61 S13       29.82S
OAKLAND CITY   N/A       60  MM  MM MISG
OAKLAND        CLOUDY    65  57  75 W5        29.86S
SAN FRAN CITY  N/A       60  MM  93 MISG
SAN FRAN ARPT  MOSUNNY   66  59  78 NW10      29.85S
LIVERMORE      SUNNY     72  57  59 NW3       29.83S
HAYWARD        CLOUDY    68  60  75 NW7       29.86R
REDWOOD CITY   N/A       MM  MM  MM MISG
MOFFETT ARPT   SUNNY     68  58  70 N3        29.86S
SAN JOSE ARPT  SUNNY     67  57  70 SE5       29.85S
$$
CAZ034-037-514>518-021800-
CENTRAL COAST

CITY           SKY/WX    TMP DP  RH WIND       PRES   REMARKS
WATSONVILLE    CLOUDY    62  59  90 S6        29.89S FOG
SALINAS        CLOUDY    63  55  77 SW6       29.89R
MONTEREY       CLOUDY    60  56  86 SW8       29.90R
PT PIEDRAS BLS NOT AVBL
SAN LUIS OBISP SUNNY     67  58  72 CALM      29.88F
SANTA MARIA    PTSUNNY   67  58  72 VRB3      29.89S HAZE
$$
CAZ015-016-021800-
NORTHERN SACRAMENTO VALLEY

CITY           SKY/WX    TMP DP  RH WIND       PRES   REMARKS
REDDING        SUNNY     84  41  21 N5        29.79S
RED BLUFF      SUNNY     83  42  23 VRB3      29.80S
OROVILLE       SUNNY     85  47  26 CALM      29.80S
$$
CAZ016>018-021800-
SOUTHERN SACRAMENTO VALLEY

CITY           SKY/WX    TMP DP  RH WIND       PRES   REMARKS
AUBURN         SUNNY     82  43  24 S5        29.86R
BEALE AFB      SUNNY     82  51  33 S10       29.78S
LINCOLN        FAIR      82  45  26 S8        29.78S
MARYSVILLE     SUNNY     79  53  40 S10       29.78S
SAC INTL ARPT  SUNNY     74  55  51 S10       29.78S
MATHER AIRPORT SUNNY     75  54  46 SW6         N/A
DOWNTOWN SAC   N/A       77  MM  MM MISG
SAC EXEC ARPT  SUNNY     74  56  53 SW7       29.80R
VACAVILLE      SUNNY     75  53  46 SW9       29.80S
TRAVIS AFB     SUNNY     71  58  64 SW20      29.78S
$$
CAZ019>021-021800-
SAN JOAQUIN VALLEY

CITY           SKY/WX    TMP DP  RH WIND       PRES   REMARKS
STOCKTON       SUNNY     79  55  43 W7        29.79S
MODESTO        SUNNY     82  50  32 N3        29.78S
MERCED         SUNNY     83  54  36 VRB3      29.79S
LEMOORE        SUNNY     86  48  26 CALM      29.80S
FRESNO         SUNNY     86  54  33 SE7       29.81S
HANFORD        SUNNY     83  56  39 CALM      29.81S HAZE
PORTERVILLE    SUNNY     86  48  26 S6        29.82F
BAKERSFIELD    SUNNY     87  43  21 E5        29.81S
$$
CAZ011-012-071-021800-
NORTHERN MOUNTAINS

CITY           SKY/WX    TMP DP  RH WIND       PRES   REMARKS
YREKA          SUNNY     70  41  34 CALM      29.95S
MOUNT SHASTA   SUNNY     76  46  34 CALM      29.95F
ALTURAS        SUNNY     68  31  25 CALM      30.00F
$$
CAZ011-012-071-021800-
SIERRA NEVADA MTNS

CITY           SKY/WX    TMP DP  RH WIND       PRES   REMARKS
BLUE CANYON    SUNNY     73  33  23 SE8       30.10S
TRUCKEE        SUNNY     64  39  39 CALM      30.12F
TAHOE VLY ARPT SUNNY     72  40  31 NE7       30.12F
MAMMOTH LAKES  FAIR      72  32  23 SE8       30.20S
$$



USA.gov is the U.S. government's official web portal to all federal, state and local government web resources and services.